{"data":{"norad_id":50174,"epoch":"2026-05-25T00:52:50.873088Z","epoch_age_seconds":78671,"freshness":"FRESH","line1":"1 50174U 21125U   26145.03669992  .00000700  00000+0  62046-4 0  9998","line2":"2 50174  53.2158 261.9949 0001199  88.8016 271.3113 15.08837384248238","mean_motion":15.08837384,"eccentricity":0.0001199,"inclination_deg":53.2158,"raan_deg":261.9949,"arg_perigee_deg":88.8016,"mean_anomaly_deg":271.3113,"bstar":6.2046e-5,"rev_number":24823,"period_min":95.43772014599,"perigee_km":538.92193022374,"apogee_km":540.58083985848,"semimajor_km":6917.8883850411,"source":"CELESTRAK","updated_at":"2026-05-25T13:38:16.844671Z"}}